FW5138 Weather Reports


time (UTC)temp
C
wind
direction
speed
KPH
gust
KPH
rain 1hr
cm
rain 24hr
cm
rain mn
cm
humidity
%
barometer
mb
20260906210024 33 280 30.6 38.6 0.00 0.00 0.00 29 1010.4
20260906204523 33 280 25.7 38.6 0.00 0.00 0.00 29 1010.5
20260906203031 33 280 25.7 43.5 0.00 0.00 0.00 30 1010.8
20260906201521 33 280 25.7 41.8 0.00 0.00 0.00 31 1010.9
20260906200026 32 280 19.3 40.2 0.00 0.00 0.00 32 1010.9
20260906194519 32 280 22.5 43.5 0.00 0.00 0.00 32 1011.1
20260906193018 32 280 29.0 43.5 0.00 0.00 0.00 32 1011.3
20260906191517 32 280 30.6 48.3 0.00 0.00 0.00 32 1011.2
20260906190016 33 280 24.1 38.6 0.00 0.00 0.00 27 1011.3
20260906184515 33 280 22.5 38.6 0.00 0.00 0.00 27 1011.4
20260906183035 33 280 22.5 33.8 0.00 0.00 0.00 28 1011.6
20260906181516 32 280 24.1 37.0 0.00 0.00 0.00 27 1011.7
20260906180018 32 280 17.7 35.4 0.00 0.00 0.00 28 1011.9
20260906174506 32 280 22.5 35.4 0.00 0.00 0.00 28 1012.3
20260906173009 32 280 19.3 37.0 0.00 0.00 0.00 30 1012.6
20260906171510 31 280 17.7 29.0 0.00 0.00 0.00 31 1012.5
20260906170004 31 280 6.4 29.0 0.00 0.00 0.00 32 1012.8
20260906164502 31 280 17.7 25.7 0.00 0.00 0.00 31 1012.9
20260906163107 31 280 4.8 20.9 0.00 0.00 0.00 31 1012.9
20260906161602 31 280 17.7 30.6 0.00 0.00 0.00 31 1012.8
20260906160058 30 280 14.5 27.4 0.00 0.00 0.00 31 1012.8
20260906154554 30 280 6.4 32.2 0.00 0.00 0.00 33 1012.7
20260906153057 30 280 8.0 22.5 0.00 0.00 0.00 34 1012.6
20260906151551 30 280 6.4 20.9 0.00 0.00 0.00 34 1012.8
20260906150054 29 280 3.2 25.7 0.00 0.00 0.00 36 1012.9
20260906144553 28 280 3.2 25.7 0.00 0.00 0.00 40 1013.0
20260906143040 27 280 6.4 17.7 0.00 0.00 0.00 45 1013.0
20260906141538 26 280 9.7 17.7 0.00 0.00 0.00 51 1012.9
20260906140039 24 280 8.0 16.1 0.00 0.00 0.00 57 1012.7
20260906134527 23 280 6.4 11.3 0.00 0.00 0.00 60 1012.8
20260906133023 22 280 1.6 11.3 0.00 0.00 0.00 64 1012.7
20260906131520 21 280 6.4 17.7 0.00 0.00 0.00 66 1012.8
20260906130025 20 280 1.6 4.8 0.00 0.00 0.00 68 1012.5
20260906124517 20 280 0.0 3.2 0.00 0.00 0.00 70 1012.5
20260906123024 19 280 3.2 4.8 0.00 0.00 0.00 70 1012.3
20260906121527 19 280 1.6 4.8 0.00 0.00 0.00 69 1012.1
20260906120015 19 280 0.0 1.6 0.00 0.00 0.00 69 1012.0
20260906114517 20 280 1.6 4.8 0.00 0.00 0.00 68 1012.1
20260906113035 20 280 1.6 4.8 0.00 0.00 0.00 68 1011.9
20260906111514 20 280 1.6 4.8 0.00 0.00 0.00 66 1012.1
20260906110012 20 280 3.2 4.8 0.00 0.00 0.00 70 1012.2
20260906104513 19 280 4.8 8.0 0.00 0.00 0.00 73 1012.1
20260906103010 19 280 1.6 3.2 0.00 0.00 0.00 73 1012.2
20260906101510 20 280 3.2 4.8 0.00 0.00 0.00 73 1011.9
20260906100016 21 280 1.6 8.0 0.00 0.00 0.00 70 1011.8
20260906094507 18 280 3.2 6.4 0.00 0.00 0.00 82 1011.9
20260906093008 18 280 4.8 8.0 0.00 0.00 0.00 82 1011.8
20260906091515 18 280 4.8 8.0 0.00 0.00 0.00 82 1011.8
20260906090006 18 280 6.4 9.7 0.00 0.00 0.00 83 1011.9
20260906084503 18 280 3.2 9.7 0.00 0.00 0.00 78 1011.9
20260906083002 18 280 4.8 8.0 0.00 0.00 0.00 81 1012.1
20260906081502 19 280 1.6 4.8 0.00 0.00 0.00 80 1011.9
20260906080107 19 280 3.2 6.4 0.00 0.00 0.00 81 1011.7
20260906074612 19 280 3.2 6.4 0.00 0.00 0.00 79 1012.0
20260906073100 20 280 6.4 9.7 0.00 0.00 0.00 79 1011.8
20260906071558 19 280 1.6 4.8 0.00 0.00 0.00 78 1011.9
20260906064553 19 280 0.0 0.0 0.00 0.00 0.00 78 1011.8
20260906063050 20 280 1.6 3.2 0.00 0.00 0.00 77 1012.0
20260906061555 20 280 0.0 3.2 0.00 0.00 0.00 76 1012.0
20260906060045 20 280 1.6 4.8 0.00 0.00 0.00 75 1012.0
20260906054545 21 280 3.2 6.4 0.00 0.00 0.00 74 1012.0
20260906053044 21 280 4.8 9.7 0.00 0.00 0.00 73 1012.1
20260906051554 21 280 6.4 11.3 0.00 0.00 0.00 71 1012.1
20260906050048 22 280 9.7 12.9 0.00 0.00 0.00 69 1012.2
20260906044543 22 280 9.7 14.5 0.00 0.00 0.00 67 1012.2
20260906043043 22 280 9.7 17.7 0.00 0.00 0.00 66 1012.5
20260906041544 23 280 12.9 20.9 0.00 0.00 0.00 64 1012.5
20260906040046 23 280 12.9 19.3 0.00 0.00 0.00 63 1012.7
20260906034542 24 280 11.3 22.5 0.00 0.00 0.00 63 1012.7
20260906033046 24 280 11.3 22.5 0.00 0.00 0.00 62 1012.8
20260906031554 25 280 12.9 25.7 0.00 0.00 0.00 61 1012.7
20260906030039 25 280 14.5 25.7 0.00 0.00 0.00 54 1012.6
20260906024538 26 280 17.7 29.0 0.00 0.00 0.00 50 1012.5
20260906023037 27 280 17.7 29.0 0.00 0.00 0.00 48 1012.2
20260906021537 27 280 20.9 30.6 0.00 0.00 0.00 44 1011.9
20260906020036 27 280 19.3 24.1 0.00 0.00 0.00 44 1011.4
20260906014536 27 280 6.4 9.7 0.00 0.00 0.00 37 1011.1
20260906013035 26 280 4.8 11.3 0.00 0.00 0.00 43 1010.9
20260906011539 29 280 8.0 14.5 0.00 0.00 0.00 38 1010.9
20260906010034 31 280 0.0 4.8 0.00 0.00 0.00 31 1011.3
20260906004533 32 280 0.0 0.0 0.00 0.00 0.00 26 1010.8
20260906003033 33 280 0.0 1.6 0.00 0.00 0.00 24 1010.7
20260906001533 34 280 0.0 3.2 0.00 0.00 0.00 21 1010.6
20260906000032 34 280 0.0 0.0 0.00 0.00 0.00 21 1010.4
20260905234531 33 280 0.0 4.8 0.00 0.00 0.00 22 1010.4
20260905233031 33 280 0.0 6.4 0.00 0.00 0.00 23 1010.3
20260905231530 34 280 4.8 9.7 0.00 0.00 0.00 21 1010.2
20260905230030 35 280 12.9 22.5 0.00 0.00 0.00 22 1009.9
20260905224536 34 280 11.3 16.1 0.00 0.00 0.00 23 1009.9
20260905223027 33 280 6.4 12.9 0.00 0.00 0.00 25 1010.1
20260905221526 34 280 8.0 20.9 0.00 0.00 0.00 25 1010.2
20260905220025 33 280 9.7 16.1 0.00 0.00 0.00 26 1010.4
20260905214523 33 280 8.0 17.7 0.00 0.00 0.00 28 1010.7
20260905213023 32 280 11.3 17.7 0.00 0.00 0.00 28 1010.9
20260905211522 33 280 8.0 14.5 0.00 0.00 0.00 28 1011.4